KU4ME Weather Reports


time (UTC)temp
F
wind
direction
speed
knots
gust
knots
rain 1hr
in
rain 24hr
in
rain mn
in
humidity
%
barometer
mb
20260505152005 68 104 0.0 0.0 0.00 0.00 0.00 56 1014.5
20260505151005 67 104 0.0 0.0 0.00 0.00 0.00 54 1014.5
20260505125004 55 329 0.0 0.0 0.00 0.00 0.00 91 1014.4
20260505124004 54 329 0.0 0.0 0.00 0.00 0.00 91 1014.4
20260505122004 53 329 0.0 0.0 0.00 0.00 0.00 92 1014.2
20260505121004 52 329 0.0 0.0 0.00 0.00 0.00 92 1014.2
20260505120005 52 329 0.0 0.0 0.00 0.00 0.00 92 1014.1
20260505115005 51 329 0.0 0.0 0.00 0.00 0.00 92 1014.0
20260505114005 51 329 0.0 0.0 0.00 0.00 0.00 92 1014.1
20260505113005 51 329 0.0 0.0 0.00 0.00 0.00 92 1014.1
20260505111004 51 329 0.0 0.0 0.00 0.00 0.00 91 1013.5
20260505102004 52 329 0.0 0.0 0.00 0.00 0.00 90 1013.4
20260505101005 52 329 0.0 0.0 0.00 0.00 0.00 90 1013.3
20260505100004 52 329 0.0 0.0 0.00 0.00 0.00 89 1013.3
20260505095004 53 329 0.0 0.0 0.00 0.00 0.00 88 1013.4
20260505094004 53 329 0.0 0.0 0.00 0.00 0.00 88 1013.4
20260505093004 53 329 0.0 0.0 0.00 0.00 0.00 87 1013.5
20260505092004 53 329 0.0 0.0 0.00 0.00 0.00 86 1013.5
20260505090005 54 329 0.0 0.0 0.00 0.00 0.00 85 1013.5
20260505084004 54 329 0.0 0.0 0.00 0.00 0.00 84 1013.3
20260505083005 55 329 0.0 0.0 0.00 0.00 0.00 83 1013.2
20260505082005 55 329 0.0 0.0 0.00 0.00 0.00 83 1013.1
20260505081004 55 329 0.0 0.0 0.00 0.00 0.00 82 1013.0
20260505080004 55 329 0.0 0.0 0.00 0.00 0.00 81 1012.7
20260505075004 55 329 0.0 0.0 0.00 0.00 0.00 80 1012.7
20260505072004 56 329 0.0 0.0 0.00 0.00 0.00 77 1012.7
20260505071004 57 329 0.0 0.0 0.00 0.00 0.00 76 1012.7
20260505070004 57 329 0.0 0.0 0.00 0.00 0.00 76 1012.8
20260505064005 58 329 0.0 0.0 0.00 0.00 0.00 75 1012.7
20260505063004 58 329 0.0 0.0 0.00 0.00 0.00 74 1012.8
20260505060004 59 329 0.0 0.0 0.00 0.00 0.00 70 1012.6
20260505055004 60 329 0.0 0.0 0.00 0.00 0.00 69 1012.6
20260505053004 60 329 0.0 0.0 0.00 0.00 0.00 64 1012.4
20260505052004 60 329 0.0 0.0 0.00 0.00 0.00 64 1012.1
20260505051004 61 329 0.0 0.0 0.00 0.00 0.00 65 1012.1
20260505041007 62 329 0.0 0.0 0.00 0.00 0.00 59 1012.1
20260505034007 62 329 0.0 0.0 0.00 0.00 0.00 60 1012.1
20260505033007 62 329 0.0 0.0 0.00 0.00 0.00 60 1012.2
20260505032006 62 329 0.0 0.0 0.00 0.00 0.00 60 1012.3
20260505030007 62 329 0.0 0.0 0.00 0.00 0.00 65 1012.3
20260505024007 62 329 0.0 0.0 0.00 0.00 0.00 69 1012.5
20260505022007 62 329 0.0 0.0 0.00 0.00 0.00 71 1012.5
20260505021007 62 329 0.0 4.3 0.00 0.00 0.00 70 1012.5
20260505020007 62 20 0.0 0.0 0.00 0.00 0.00 71 1012.3
20260505015006 62 20 0.0 0.0 0.00 0.00 0.00 71 1012.3
20260505014006 62 20 0.0 0.0 0.00 0.00 0.00 70 1012.3
20260505013006 63 20 0.0 0.0 0.00 0.00 0.00 69 1012.2
20260505012007 63 20 0.0 0.0 0.00 0.00 0.00 68 1012.1
20260505011007 64 20 0.0 0.0 0.00 0.00 0.00 66 1012.0
20260505010007 64 20 0.0 0.0 0.00 0.00 0.00 65 1011.9
20260505005007 65 20 0.0 0.0 0.00 0.00 0.00 64 1011.8
20260505004007 65 20 0.0 0.0 0.00 0.00 0.00 62 1011.8
20260505003007 66 20 0.0 0.0 0.00 0.00 0.00 60 1011.7
20260505002007 66 20 0.0 0.0 0.00 0.00 0.00 58 1011.7
20260505000006 68 20 0.0 0.0 0.00 0.00 0.00 56 1011.6
20260504235006 68 20 0.0 0.0 0.00 0.00 0.00 55 1011.7
20260504234006 69 20 0.0 0.0 0.00 0.00 0.00 52 1011.6
20260504233007 69 20 0.0 0.0 0.00 0.00 0.00 49 1011.6
20260504232007 70 20 0.0 0.0 0.00 0.00 0.00 47 1011.8
20260504231006 70 20 0.0 0.0 0.00 0.00 0.00 45 1011.7
20260504230006 71 20 0.9 4.3 0.00 0.00 0.00 43 1011.7
20260504225006 71 0 0.0 0.0 0.00 0.00 0.00 43 1011.7
20260504224006 71 0 0.0 6.1 0.00 0.00 0.00 41 1011.7
20260504223006 72 52 0.9 5.2 0.00 0.00 0.00 40 1011.8
20260504221006 73 78 0.0 6.1 0.00 0.00 0.00 38 1011.7
20260504220006 74 186 1.7 7.8 0.00 0.00 0.00 38 1011.8
20260504215006 75 62 0.9 7.8 0.00 0.00 0.00 38 1011.8
20260504214006 75 72 0.0 2.6 0.00 0.00 0.00 38 1011.7
20260504212006 75 70 0.0 4.3 0.00 0.00 0.00 37 1011.9
20260504211006 76 83 0.9 6.1 0.00 0.00 0.00 38 1011.8
20260504210006 76 139 0.0 4.3 0.00 0.00 0.00 36 1011.9
20260504205006 77 313 0.0 4.3 0.00 0.00 0.00 36 1012.0
20260504204006 77 314 1.7 4.3 0.00 0.00 0.00 36 1012.2
20260504202006 77 86 0.0 7.8 0.00 0.00 0.00 39 1012.4
20260504201005 77 215 0.9 4.3 0.00 0.00 0.00 39 1012.5
20260504200006 77 90 0.0 2.6 0.00 0.00 0.00 40 1012.6
20260504195005 77 90 0.9 4.3 0.00 0.00 0.00 38 1012.8
20260504194006 77 21 0.9 7.0 0.00 0.00 0.00 37 1012.7
20260504193006 78 58 0.0 4.3 0.00 0.00 0.00 38 1012.9
20260504192006 77 90 0.9 7.8 0.00 0.00 0.00 38 1013.1
20260504191006 76 11 0.0 4.3 0.00 0.00 0.00 41 1013.4
20260504190006 76 86 0.0 7.8 0.00 0.00 0.00 39 1013.5
20260504185006 76 68 0.0 5.2 0.00 0.00 0.00 40 1013.5
20260504184006 76 122 0.9 5.2 0.00 0.00 0.00 40 1013.9
20260504182006 74 105 0.9 7.8 0.00 0.00 0.00 41 1014.0
20260504181005 74 313 0.9 2.6 0.00 0.00 0.00 41 1014.1
20260504175006 73 181 0.0 2.6 0.00 0.00 0.00 42 1014.4
20260504174005 72 31 0.0 7.0 0.00 0.00 0.00 42 1014.4
20260504173006 72 325 1.7 4.3 0.00 0.00 0.00 42 1014.7
20260504172006 72 123 0.0 7.0 0.00 0.00 0.00 42 1014.8
20260504171005 71 116 0.9 6.1 0.00 0.00 0.00 42 1015.0